| time (UTC) | temp F | wind direction | speed MPH | gust MPH | rain 1hr in | rain 24hr in | rain mn in | humidity % | barometer mb |
| 20260906182533 | 57 | 238 | 5.0 | 7.0 | 0.06 | 0.20 | 0.20 | 99 | |
| 20260906181524 | 57 | 216 | 3.0 | 4.0 | 0.06 | 0.19 | 0.19 | 99 | |
| 20260906180612 | 57 | 206 | 3.0 | 4.0 | 0.06 | 0.18 | 0.18 | 99 | |
| 20260906175520 | 57 | 199 | 2.0 | 4.0 | 0.06 | 0.17 | 0.17 | 99 | |
| 20260906174528 | 57 | 182 | 2.0 | 5.0 | 0.07 | 0.16 | 0.16 | 99 | |
| 20260906173537 | 57 | 178 | 3.0 | 5.0 | 0.06 | 0.15 | 0.15 | 99 | |
| 20260906172526 | 57 | 176 | 3.0 | 4.0 | 0.06 | 0.14 | 0.14 | 99 | |
| 20260906171534 | 57 | 186 | 3.0 | 4.0 | 0.05 | 0.13 | 0.13 | 99 | |
| 20260906170543 | 56 | 232 | 3.0 | 6.0 | 0.05 | 0.12 | 0.12 | 99 | |
| 20260906165551 | 56 | 239 | 3.0 | 4.0 | 0.04 | 0.11 | 0.11 | 99 | |
| 20260906164542 | 57 | 240 | 3.0 | 5.0 | 0.03 | 0.09 | 0.09 | 99 | |
| 20260906163529 | 57 | 222 | 4.0 | 6.0 | 0.04 | 0.09 | 0.09 | 99 | |
| 20260906162602 | 57 | 201 | 4.0 | 4.0 | 0.03 | 0.08 | 0.08 | 99 | |
| 20260906161527 | 57 | 189 | 3.0 | 5.0 | 0.04 | 0.08 | 0.08 | 99 | |
| 20260906160555 | 57 | 178 | 3.0 | 5.0 | 0.03 | 0.07 | 0.07 | 99 | |
| 20260906155524 | 57 | 176 | 2.0 | 3.0 | 0.04 | 0.07 | 0.07 | 99 | |
| 20260906154531 | 57 | 178 | 3.0 | 4.0 | 0.03 | 0.06 | 0.06 | 99 | |
| 20260906153521 | 57 | 181 | 3.0 | 4.0 | 0.02 | 0.05 | 0.05 | 99 | |
| 20260906152529 | 57 | 203 | 1.0 | 3.0 | 0.03 | 0.05 | 0.05 | 99 | |
| 20260906151634 | 57 | 180 | 0.0 | 4.0 | 0.03 | 0.04 | 0.04 | 99 | |
| 20260906150603 | 57 | 189 | 4.0 | 6.0 | 0.03 | 0.04 | 0.04 | 99 | |
| 20260906145534 | 57 | 172 | 4.0 | 5.0 | 0.03 | 0.03 | 0.03 | 99 | |
| 20260906144603 | 57 | 184 | 2.0 | 4.0 | 0.03 | 0.03 | 0.03 | 99 | |
| 20260906143532 | 57 | 184 | 2.0 | 3.0 | 0.03 | 0.03 | 0.03 | 99 | |
| 20260906142520 | 57 | 140 | 1.0 | 3.0 | 0.02 | 0.02 | 0.02 | 99 | |
| 20260906141529 | 57 | 130 | 2.0 | 3.0 | 0.01 | 0.01 | 0.01 | 99 | |
| 20260906140537 | 57 | 125 | 2.0 | 3.0 | 0.01 | 0.01 | 0.01 | 99 | |
| 20260906135526 | 57 | 158 | 2.0 | 3.0 | 0.00 | 0.00 | 0.00 | 98 | |
| 20260906134535 | 57 | 131 | 1.0 | 3.0 | 0.00 | 0.00 | 0.00 | 98 | |
| 20260906133523 | 57 | 177 | 2.0 | 3.0 | 0.00 | 0.00 | 0.00 | 98 | |
| 20260906132532 | 57 | 234 | 1.0 | 3.0 | 0.00 | 0.00 | 0.00 | 98 | |
| 20260906131521 | 57 | 211 | 2.0 | 3.0 | 0.00 | 0.00 | 0.00 | 97 | |
| 20260906130529 | 57 | 0.0 | 0.0 | 0.00 | 0.00 | 0.00 | 97 | ||
| 20260906125537 | 57 | 168 | 2.0 | 5.0 | 0.00 | 0.00 | 0.00 | 97 | |
| 20260906124527 | 57 | 203 | 2.0 | 4.0 | 0.00 | 0.00 | 0.00 | 97 | |
| 20260906123535 | 57 | 165 | 3.0 | 4.0 | 0.00 | 0.00 | 0.00 | 97 | |
| 20260906122528 | 57 | 135 | 1.0 | 2.0 | 0.00 | 0.00 | 0.00 | 96 | |
| 20260906121531 | 57 | 115 | 2.0 | 3.0 | 0.00 | 0.00 | 0.00 | 95 | |
| 20260906120521 | 57 | 96 | 1.0 | 3.0 | 0.00 | 0.00 | 0.00 | 94 | |
| 20260906115550 | 57 | 220 | 2.0 | 3.0 | 0.00 | 0.00 | 0.00 | 94 | |
| 20260906114537 | 57 | 202 | 2.0 | 3.0 | 0.00 | 0.00 | 0.00 | 94 | |
| 20260906113526 | 57 | 113 | 0.0 | 1.0 | 0.00 | 0.00 | 0.00 | 95 | |
| 20260906112535 | 57 | 0.0 | 0.0 | 0.00 | 0.00 | 0.00 | 95 | ||
| 20260906111547 | 57 | 158 | 0.0 | 2.0 | 0.00 | 0.00 | 0.00 | 94 | |
| 20260906110532 | 57 | 0.0 | 0.0 | 0.00 | 0.00 | 0.00 | 94 | ||
| 20260906105521 | 57 | 150 | 1.0 | 2.0 | 0.00 | 0.00 | 0.00 | 94 | |
| 20260906104549 | 57 | 124 | 2.0 | 3.0 | 0.00 | 0.00 | 0.00 | 94 | |
| 20260906103519 | 57 | 0.0 | 0.0 | 0.00 | 0.00 | 0.00 | 95 | ||
| 20260906102527 | 57 | 213 | 2.0 | 3.0 | 0.00 | 0.00 | 0.00 | 95 | |
| 20260906101636 | 57 | 199 | 2.0 | 3.0 | 0.00 | 0.00 | 0.00 | 95 | |
| 20260906100527 | 57 | 196 | 2.0 | 3.0 | 0.00 | 0.00 | 0.00 | 95 | |
| 20260906095534 | 57 | 220 | 3.0 | 3.0 | 0.00 | 0.00 | 0.00 | 95 | |
| 20260906094542 | 57 | 216 | 2.0 | 3.0 | 0.00 | 0.00 | 0.00 | 95 | |
| 20260906093530 | 57 | 217 | 2.0 | 3.0 | 0.00 | 0.00 | 0.00 | 95 | |
| 20260906092519 | 57 | 224 | 3.0 | 4.0 | 0.00 | 0.00 | 0.00 | 96 | |
| 20260906091527 | 57 | 218 | 2.0 | 4.0 | 0.00 | 0.00 | 0.00 | 96 | |
| 20260906090535 | 57 | 0.0 | 0.0 | 0.00 | 0.00 | 0.00 | 96 | ||
| 20260906085526 | 57 | 0.0 | 0.0 | 0.00 | 0.00 | 0.00 | 96 | ||
| 20260906084535 | 57 | 0.0 | 0.0 | 0.00 | 0.00 | 0.00 | 96 | ||
| 20260906083602 | 57 | 0.0 | 0.0 | 0.00 | 0.00 | 0.00 | 96 | ||
| 20260906082550 | 57 | 0.0 | 0.0 | 0.00 | 0.00 | 0.00 | 96 | ||
| 20260906081519 | 57 | 0.0 | 0.0 | 0.00 | 0.00 | 0.00 | 95 | ||
| 20260906080527 | 57 | 0.0 | 0.0 | 0.00 | 0.00 | 0.00 | 95 | ||
| 20260906075535 | 58 | 0.0 | 0.0 | 0.00 | 0.00 | 0.00 | 95 | ||
| 20260906074526 | 58 | 0.0 | 0.0 | 0.00 | 0.00 | 0.00 | 94 | ||
| 20260906073533 | 58 | 0.0 | 0.0 | 0.00 | 0.00 | 0.00 | 93 | ||
| 20260906072522 | 58 | 0.0 | 0.0 | 0.00 | 0.00 | 0.00 | 93 | ||
| 20260906071531 | 58 | 0.0 | 0.0 | 0.00 | 0.00 | 0.00 | 93 | ||
| 20260906070520 | 59 | 158 | 0.0 | 2.0 | 0.00 | 0.00 | 0.00 | 92 | |
| 20260906065527 | 59 | 226 | 3.0 | 4.0 | 0.00 | 0.00 | 0.00 | 92 | |
| 20260906064536 | 59 | 215 | 3.0 | 5.0 | 0.00 | 0.00 | 0.00 | 92 | |
| 20260906063526 | 59 | 234 | 3.0 | 4.0 | 0.00 | 0.00 | 0.00 | 92 | |
| 20260906062533 | 59 | 234 | 4.0 | 5.0 | 0.00 | 0.00 | 0.00 | 92 | |
| 20260906061522 | 58 | 233 | 3.0 | 5.0 | 0.00 | 0.00 | 0.00 | 92 | |
| 20260906060530 | 58 | 215 | 2.0 | 4.0 | 0.00 | 0.00 | 0.00 | 92 | |
| 20260906055520 | 59 | 124 | 1.0 | 2.0 | 0.00 | 0.00 | 0.00 | 91 | |
| 20260906054527 | 59 | 178 | 1.0 | 2.0 | 0.00 | 0.00 | 0.00 | 90 | |
| 20260906053535 | 59 | 179 | 2.0 | 3.0 | 0.00 | 0.00 | 0.00 | 90 | |
| 20260906052531 | 59 | 179 | 3.0 | 3.0 | 0.00 | 0.00 | 0.00 | 90 | |
| 20260906051533 | 59 | 195 | 1.0 | 3.0 | 0.00 | 0.00 | 0.00 | 90 | |
| 20260906050543 | 59 | 236 | 3.0 | 4.0 | 0.00 | 0.00 | 0.00 | 89 | |
| 20260906045531 | 59 | 224 | 3.0 | 4.0 | 0.00 | 0.00 | 0.00 | 89 | |
| 20260906044520 | 60 | 217 | 4.0 | 4.0 | 0.00 | 0.00 | 0.00 | 88 | |
| 20260906043548 | 60 | 238 | 4.0 | 5.0 | 0.00 | 0.00 | 0.00 | 88 | |
| 20260906042536 | 60 | 236 | 5.0 | 7.0 | 0.00 | 0.00 | 0.00 | 87 | |
| 20260906041526 | 60 | 223 | 4.0 | 6.0 | 0.00 | 0.00 | 0.00 | 87 | |
| 20260906040534 | 60 | 231 | 5.0 | 6.0 | 0.00 | 0.00 | 0.00 | 86 | |
| 20260906035523 | 61 | 211 | 4.0 | 6.0 | 0.00 | 0.00 | 0.00 | 85 | |
| 20260906034551 | 61 | 231 | 6.0 | 8.0 | 0.00 | 0.00 | 0.00 | 85 | |
| 20260906033520 | 61 | 219 | 4.0 | 7.0 | 0.00 | 0.00 | 0.00 | 84 | |
| 20260906032528 | 62 | 223 | 6.0 | 8.0 | 0.00 | 0.00 | 0.00 | 83 | |
| 20260906031556 | 62 | 219 | 6.0 | 9.0 | 0.00 | 0.00 | 0.00 | 82 | |
| 20260906030527 | 62 | 217 | 5.0 | 8.0 | 0.00 | 0.00 | 0.00 | 81 | |
| 20260906025533 | 63 | 221 | 6.0 | 8.0 | 0.00 | 0.00 | 0.00 | 80 | |
| 20260906024521 | 64 | 209 | 5.0 | 6.0 | 0.00 | 0.00 | 0.00 | 78 | |
| 20260906023530 | 65 | 217 | 6.0 | 8.0 | 0.00 | 0.00 | 0.00 | 76 | |
| 20260906022520 | 65 | 221 | 5.0 | 9.0 | 0.00 | 0.00 | 0.00 | 73 | |
| 20260906021527 | 66 | 226 | 4.0 | 5.0 | 0.00 | 0.00 | 0.00 | 71 | |
| 20260906020535 | 66 | 220 | 6.0 | 7.0 | 0.00 | 0.00 | 0.00 | 70 | |
| 20260906015527 | 67 | 203 | 6.0 | 7.0 | 0.00 | 0.00 | 0.00 | 69 | |
| 20260906014534 | 67 | 215 | 6.0 | 8.0 | 0.00 | 0.00 | 0.00 | 67 | |
| 20260906013542 | 68 | 225 | 8.0 | 10.0 | 0.00 | 0.00 | 0.00 | 67 | |
| 20260906012529 | 68 | 218 | 8.0 | 11.0 | 0.00 | 0.00 | 0.00 | 66 | |
| 20260906011537 | 69 | 238 | 3.0 | 5.0 | 0.00 | 0.00 | 0.00 | 61 | |
| 20260906010527 | 69 | 234 | 5.0 | 7.0 | 0.00 | 0.00 | 0.00 | 60 | |
| 20260906005635 | 70 | 226 | 6.0 | 9.0 | 0.00 | 0.00 | 0.00 | 59 | |
| 20260906004544 | 71 | 231 | 6.0 | 7.0 | 0.00 | 0.00 | 0.00 | 58 | |
| 20260906003532 | 71 | 254 | 4.0 | 6.0 | 0.00 | 0.00 | 0.00 | 57 | |
| 20260906002521 | 71 | 297 | 3.0 | 5.0 | 0.00 | 0.00 | 0.00 | 56 | |
| 20260906001529 | 72 | 265 | 5.0 | 8.0 | 0.00 | 0.00 | 0.00 | 56 | |
| 20260906000537 | 72 | 247 | 4.0 | 6.0 | 0.00 | 0.00 | 0.00 | 56 | |
| 20260905235527 | 72 | 236 | 4.0 | 7.0 | 0.00 | 0.00 | 0.00 | 55 | |
| 20260905234535 | 71 | 242 | 4.0 | 6.0 | 0.00 | 0.00 | 0.00 | 56 | |
| 20260905233544 | 70 | 323 | 3.0 | 6.0 | 0.00 | 0.00 | 0.00 | 57 | |
| 20260905232531 | 71 | 270 | 3.0 | 6.0 | 0.00 | 0.00 | 0.00 | 56 | |
| 20260905231521 | 72 | 230 | 6.0 | 8.0 | 0.00 | 0.00 | 0.00 | 56 | |
| 20260905230529 | 71 | 235 | 4.0 | 6.0 | 0.00 | 0.00 | 0.00 | 58 | |
| 20260905225537 | 71 | 242 | 6.0 | 8.0 | 0.00 | 0.00 | 0.00 | 57 | |
| 20260905224527 | 72 | 246 | 6.0 | 8.0 | 0.00 | 0.00 | 0.00 | 56 | |
| 20260905223615 | 72 | 220 | 7.0 | 10.0 | 0.00 | 0.00 | 0.00 | 56 | |
| 20260905222523 | 71 | 296 | 3.0 | 6.0 | 0.00 | 0.00 | 0.00 | 58 | |
| 20260905221532 | 71 | 211 | 6.0 | 8.0 | 0.00 | 0.00 | 0.00 | 56 | |
| 20260905220521 | 71 | 269 | 3.0 | 6.0 | 0.00 | 0.00 | 0.00 | 57 | |
| 20260905215529 | 71 | 210 | 6.0 | 9.0 | 0.00 | 0.00 | 0.00 | 56 | |
| 20260905214616 | 72 | 230 | 5.0 | 11.0 | 0.00 | 0.00 | 0.00 | 56 | |
| 20260905213527 | 71 | 229 | 4.0 | 5.0 | 0.00 | 0.00 | 0.00 | 57 | |
| 20260905212533 | 70 | 166 | 2.0 | 4.0 | 0.00 | 0.00 | 0.00 | 58 | |
| 20260905211522 | 72 | 267 | 3.0 | 5.0 | 0.00 | 0.00 | 0.00 | 57 | |
| 20260905210530 | 69 | 238 | 5.0 | 7.0 | 0.00 | 0.00 | 0.00 | 61 | |
| 20260905205519 | 69 | 229 | 4.0 | 6.0 | 0.00 | 0.00 | 0.00 | 61 | |
| 20260905204548 | 69 | 300 | 2.0 | 4.0 | 0.00 | 0.00 | 0.00 | 62 | |
| 20260905203536 | 69 | 301 | 3.0 | 6.0 | 0.00 | 0.00 | 0.00 | 62 | |
| 20260905202527 | 69 | 273 | 2.0 | 5.0 | 0.00 | 0.00 | 0.00 | 61 | |
| 20260905201533 | 69 | 4 | 3.0 | 7.0 | 0.00 | 0.00 | 0.00 | 62 | |
| 20260905200522 | 69 | 250 | 3.0 | 5.0 | 0.00 | 0.00 | 0.00 | 60 | |
| 20260905195537 | 69 | 173 | 5.0 | 6.0 | 0.00 | 0.00 | 0.00 | 60 | |
| 20260905194520 | 69 | 114 | 3.0 | 5.0 | 0.00 | 0.00 | 0.00 | 62 | |
| 20260905193527 | 68 | 178 | 2.0 | 3.0 | 0.00 | 0.00 | 0.00 | 64 | |
| 20260905192535 | 68 | 184 | 4.0 | 7.0 | 0.00 | 0.00 | 0.00 | 66 | |
| 20260905191527 | 66 | 275 | 2.0 | 3.0 | 0.00 | 0.00 | 0.00 | 69 | |
| 20260905190535 | 65 | 121 | 3.0 | 4.0 | 0.00 | 0.00 | 0.00 | 70 | |
| 20260905185522 | 66 | 147 | 4.0 | 5.0 | 0.00 | 0.00 | 0.00 | 68 | |
| 20260905184529 | 65 | 134 | 3.0 | 5.0 | 0.00 | 0.00 | 0.00 | 69 | |
| 20260905183519 | 65 | 121 | 4.0 | 5.0 | 0.00 | 0.00 | 0.00 | 69 |